• In Hungary
  • List of Countries
  • For 7 days
  • Water Temperature
  • Satellite Maps
  • Weather Map
  • News
  • Weather Widgets
  • user-avatar
    Login

    Hourly Weather San Juan

    Today, 22 January, Monday

    Time Temperature Precipitation Wind Pressure Humidity
    00:00 +29°C° 0.3 mm 2 mps 702 mmHg 39%
    01:00 +28°C° 0.3 mm 2 mps 702 mmHg 41%
    02:00 +28°C° 0.3 mm 2 mps 702 mmHg 42%
    03:00 +27°C° 0.3 mm 1 mps 702 mmHg 44%
    04:00 +27°C° 0.3 mm 1 mps 702 mmHg 46%
    05:00 +27°C° 0 mm 1 mps 702 mmHg 43%
    06:00 +28°C° 0 mm 2 mps 702 mmHg 39%
    07:00 +29°C° 0 mm 2 mps 702 mmHg 36%
    08:00 +30°C° 0 mm 2 mps 702 mmHg 32%
    09:00 +31°C° 0 mm 2 mps 702 mmHg 29%
    10:00 +32°C° 0 mm 2 mps 702 mmHg 25%
    11:00 +34°C° 0 mm 2 mps 701 mmHg 23%
    12:00 +35°C° 0 mm 2 mps 701 mmHg 21%
    13:00 +36°C° 0 mm 3 mps 700 mmHg 19%
    14:00 +36°C° 0 mm 3 mps 700 mmHg 18%
    15:00 +37°C° 0 mm 3 mps 699 mmHg 18%
    16:00 +37°C° 0 mm 3 mps 699 mmHg 17%
    17:00 +36°C° 0 mm 3 mps 699 mmHg 18%
    18:00 +36°C° 0 mm 3 mps 700 mmHg 19%
    19:00 +35°C° 0 mm 3 mps 700 mmHg 21%
    20:00 +34°C° 0.1 mm 3 mps 700 mmHg 22%
    21:00 +34°C° 0.1 mm 3 mps 701 mmHg 23%
    22:00 +33°C° 0.1 mm 3 mps 701 mmHg 24%
    23:00 +31°C° 0 mm 3 mps 701 mmHg 27%

    Tomorrow, 23 January, Tuesday

    Time Temperature Precipitation Wind Pressure Humidity
    00:00 +31°C° 0 mm 3 mps 701 mmHg 29%
    01:00 +30°C° 0 mm 2 mps 701 mmHg 32%
    02:00 +29°C° 0.1 mm 3 mps 701 mmHg 36%
    03:00 +28°C° 0.1 mm 3 mps 701 mmHg 39%
    04:00 +28°C° 0.1 mm 4 mps 701 mmHg 43%
    05:00 +28°C° 0.1 mm 3 mps 701 mmHg 43%
    06:00 +28°C° 0.1 mm 3 mps 702 mmHg 43%
    07:00 +28°C° 0.1 mm 3 mps 702 mmHg 43%
    08:00 +29°C° 0 mm 3 mps 702 mmHg 39%
    09:00 +31°C° 0 mm 3 mps 702 mmHg 34%
    10:00 +32°C° 0 mm 2 mps 702 mmHg 30%
    11:00 +34°C° 0 mm 2 mps 702 mmHg 27%
    12:00 +35°C° 0 mm 2 mps 702 mmHg 24%
    13:00 +36°C° 0 mm 2 mps 701 mmHg 21%
    14:00 +36°C° 0 mm 2 mps 701 mmHg 19%
    15:00 +37°C° 0 mm 2 mps 701 mmHg 17%
    16:00 +37°C° 0 mm 2 mps 700 mmHg 15%
    17:00 +37°C° 0 mm 2 mps 701 mmHg 16%
    18:00 +36°C° 0 mm 2 mps 701 mmHg 17%
    19:00 +35°C° 0 mm 2 mps 702 mmHg 19%
    20:00 +35°C° 0.1 mm 2 mps 702 mmHg 20%
    21:00 +34°C° 0.1 mm 2 mps 703 mmHg 20%
    22:00 +32°C° 0.1 mm 2 mps 704 mmHg 21%
    23:00 +32°C° 0.2 mm 2 mps 704 mmHg 23%

    Day after tomorrow, 24 January, Wednesday

    Time Temperature Precipitation Wind Pressure Humidity
    00:00 +31°C° 0.2 mm 2 mps 704 mmHg 25%
    01:00 +30°C° 0.2 mm 3 mps 704 mmHg 26%
    02:00 +29°C° 0.5 mm 4 mps 704 mmHg 35%
    03:00 +28°C° 0.5 mm 6 mps 704 mmHg 43%
    04:00 +26°C° 0.5 mm 8 mps 704 mmHg 51%
    05:00 +26°C° 0.3 mm 8 mps 705 mmHg 50%
    06:00 +26°C° 0.3 mm 7 mps 706 mmHg 50%
    07:00 +26°C° 0.3 mm 7 mps 706 mmHg 49%
    08:00 +27°C° 0.1 mm 7 mps 707 mmHg 47%
    09:00 +28°C° 0.1 mm 7 mps 707 mmHg 44%
    10:00 +29°C° 0.1 mm 7 mps 707 mmHg 42%
    11:00 +30°C° 0 mm 6 mps 706 mmHg 40%
    12:00 +32°C° 0 mm 6 mps 706 mmHg 39%
    13:00 +32°C° 0 mm 6 mps 705 mmHg 37%
    14:00 +32°C° 0.1 mm 5 mps 705 mmHg 36%
    15:00 +33°C° 0.1 mm 5 mps 705 mmHg 36%
    16:00 +33°C° 0.1 mm 4 mps 704 mmHg 35%
    17:00 +32°C° 0.2 mm 4 mps 705 mmHg 37%
    18:00 +30°C° 0.2 mm 4 mps 705 mmHg 39%
    19:00 +29°C° 0.2 mm 4 mps 705 mmHg 41%
    20:00 +29°C° 0.3 mm 3 mps 706 mmHg 42%
    21:00 +28°C° 0.3 mm 3 mps 706 mmHg 44%
    22:00 +28°C° 0.3 mm 2 mps 706 mmHg 46%
    23:00 +27°C° 0.2 mm 2 mps 706 mmHg 47%

    25 January, Thursday

    Time Temperature Precipitation Wind Pressure Humidity
    00:00 +27°C° 0.2 mm 2 mps 705 mmHg 48%
    01:00 +27°C° 0.2 mm 1 mps 705 mmHg 50%
    02:00 +26°C° 0.2 mm 1 mps 705 mmHg 51%
    03:00 +26°C° 0.2 mm 1 mps 704 mmHg 52%
    04:00 +26°C° 0.2 mm 1 mps 704 mmHg 54%
    05:00 +26°C° 0 mm 2 mps 704 mmHg 53%
    06:00 +27°C° 0 mm 2 mps 705 mmHg 51%
    07:00 +27°C° 0 mm 2 mps 705 mmHg 50%
    08:00 +28°C° 0 mm 2 mps 704 mmHg 47%
    09:00 +30°C° 0 mm 3 mps 704 mmHg 44%
    10:00 +31°C° 0 mm 3 mps 704 mmHg 41%
    11:00 +33°C° 0 mm 3 mps 703 mmHg 38%
    12:00 +34°C° 0 mm 3 mps 703 mmHg 35%
    13:00 +35°C° 0 mm 3 mps 702 mmHg 32%
    14:00 +35°C° 0.1 mm 3 mps 702 mmHg 32%
    15:00 +35°C° 0.1 mm 3 mps 701 mmHg 32%
    16:00 +35°C° 0.1 mm 3 mps 701 mmHg 31%
    17:00 +35°C° 0.3 mm 3 mps 701 mmHg 34%
    18:00 +34°C° 0.3 mm 3 mps 702 mmHg 36%
    19:00 +33°C° 0.3 mm 3 mps 702 mmHg 38%
    20:00 +31°C° 0.3 mm 3 mps 702 mmHg 42%
    21:00 +31°C° 0.3 mm 3 mps 703 mmHg 46%
    22:00 +30°C° 0.3 mm 3 mps 703 mmHg 50%
    23:00 +29°C° 0.4 mm 3 mps 703 mmHg 54%

    26 January, Friday

    Time Temperature Precipitation Wind Pressure Humidity
    00:00 +29°C° 0.4 mm 3 mps 702 mmHg 58%
    01:00 +28°C° 0.4 mm 3 mps 702 mmHg 62%
    02:00 +28°C° 0.2 mm 3 mps 702 mmHg 64%
    03:00 +27°C° 0.2 mm 2 mps 701 mmHg 66%
    04:00 +27°C° 0.2 mm 2 mps 701 mmHg 67%
    05:00 +27°C° 0 mm 2 mps 702 mmHg 65%
    06:00 +28°C° 0 mm 1 mps 702 mmHg 62%
    07:00 +28°C° 0 mm 1 mps 702 mmHg 59%
    08:00 +29°C° 0 mm 1 mps 702 mmHg 54%
    09:00 +30°C° 0 mm 2 mps 702 mmHg 48%
    10:00 +31°C° 0 mm 2 mps 702 mmHg 43%
    11:00 +33°C° 0.2 mm 3 mps 702 mmHg 40%
    12:00 +34°C° 0.2 mm 3 mps 701 mmHg 37%
    13:00 +35°C° 0.2 mm 4 mps 701 mmHg 34%
    14:00 +35°C° 0.3 mm 4 mps 700 mmHg 34%
    15:00 +35°C° 0.3 mm 4 mps 700 mmHg 33%
    16:00 +36°C° 0.3 mm 4 mps 700 mmHg 33%
    17:00 +35°C° 0.5 mm 4 mps 700 mmHg 36%
    18:00 +34°C° 0.5 mm 3 mps 701 mmHg 38%
    19:00 +33°C° 0.5 mm 3 mps 701 mmHg 41%
    20:00 +33°C° 0.9 mm 3 mps 701 mmHg 45%
    21:00 +31°C° 0.9 mm 2 mps 702 mmHg 48%
    22:00 +30°C° 0.9 mm 2 mps 702 mmHg 51%
    23:00 +30°C° 0.4 mm 2 mps 702 mmHg 54%

    27 January, Saturday

    Time Temperature Precipitation Wind Pressure Humidity
    00:00 +29°C° 0.4 mm 1 mps 701 mmHg 56%
    01:00 +28°C° 0.4 mm 1 mps 701 mmHg 58%
    02:00 +28°C° 0.1 mm 1 mps 701 mmHg 59%
    03:00 +28°C° 0.1 mm 1 mps 701 mmHg 59%
    04:00 +27°C° 0.1 mm 1 mps 701 mmHg 60%
    05:00 +28°C° 0 mm 1 mps 701 mmHg 55%
    06:00 +29°C° 0 mm 1 mps 702 mmHg 49%
    07:00 +29°C° 0 mm 1 mps 702 mmHg 43%
    08:00 +30°C° 0 mm 1 mps 702 mmHg 39%
    09:00 +32°C° 0 mm 1 mps 702 mmHg 35%
    10:00 +34°C° 0 mm 2 mps 702 mmHg 31%
    11:00 +35°C° 0 mm 2 mps 701 mmHg 28%
    12:00 +35°C° 0 mm 2 mps 701 mmHg 26%
    13:00 +36°C° 0 mm 3 mps 700 mmHg 24%
    14:00 +37°C° 0 mm 3 mps 700 mmHg 23%
    15:00 +37°C° 0 mm 3 mps 700 mmHg 23%
    16:00 +37°C° 0 mm 3 mps 699 mmHg 23%
    17:00 +37°C° 0.2 mm 3 mps 700 mmHg 25%
    18:00 +36°C° 0.2 mm 3 mps 700 mmHg 27%
    19:00 +35°C° 0.2 mm 2 mps 701 mmHg 29%
    20:00 +35°C° 0.3 mm 3 mps 701 mmHg 31%
    21:00 +34°C° 0.3 mm 3 mps 702 mmHg 34%
    22:00 +33°C° 0.3 mm 3 mps 702 mmHg 36%
    23:00 +31°C° 0.2 mm 3 mps 702 mmHg 38%
    Show more